RH
5 5 4 3 3 2 2 2 2 2 2 2 3 3 3 3 3 4 4 5 7 7 8 10 10 14 15 17 18 19 22 23 19 19 25 27 26 19 16 13 16 27 51 70
6 4 3 2 2 2 2 3 3 3 3 4 4 5 6 9 11 12 5 16 31 15 9 9 12 18 42 38 26 48 58 94 24 21 27 25 27 27 24 19 17 14 34 60
4 3 2 2 3 4 4 4 4 5 7 7 7 8 11 15 24 58 54 83 99 86 60 52 32 23 45 50 97 100 88 100 100 54 61 48 36 44 48 35 26 22 19 33
3 2 3 4 5 7 6 6 7 9 11 13 13 12 14 18 27 45 44 55 50 58 100 100 99 91 97 68 57 98 99 100 100 100 100 100 100 97 95 98 80 84 45 68
3 4 5 7 8 7 8 10 11 12 14 19 20 27 27 28 30 32 40 44 59 69 57 50 71 100 100 100 100 100 96 100 100 84 100 100 100 100 100 100 100 100 100 100
5 6 6 9 9 8 9 11 12 13 21 26 30 57 49 61 61 69 78 77 76 76 72 65 56 47 44 42 52 100 100 100 100 71 99 100 100 100 100 100 100 99 100 95
8 8 8 11 10 10 12 12 16 19 28 33 39 38 70 95 94 93 99 93 97 95 86 75 67 51 40 39 32 37 54 98 100 98 93 89 84 79 82 98 100 100 100 96
11 11 9 12 12 13 15 16 22 25 27 31 50 62 88 100 100 100 100 100 97 99 98 91 69 42 32 26 22 22 26 32 81 100 99 100 100 100 95 94 100 100 91 100
16 15 12 13 15 15 17 18 25 29 30 53 45 98 100 90 99 94 87 81 73 92 97 79 64 43 51 71 62 31 23 22 24 44 90 100 100 100 86 76 86 100 100 100
21 20 18 15 18 16 20 19 26 33 34 48 60 96 100 87 91 100 93 100 93 98 96 86 66 59 100 99 100 93 86 74 75 39 100 100 100 100 100 100 100 98 95 98
24 28 26 24 19 21 20 23 27 33 31 51 86 97 100 100 100 100 99 100 99 90 86 86 64 50 97 100 97 96 97 100 100 100 100 100 100 100 100 100 97 100 94 95
26 37 42 39 29 24 25 25 27 32 31 45 88 93 95 100 100 100 100 100 100 100 98 72 62 57 80 100 100 98 98 93 100 100 100 100 100 100 100 100 100 100 100 99
31 38 56 62 54 32 29 28 28 32 34 42 72 94 100 100 100 100 100 100 98 88 79 68 67 100 100 100 100 97 87 90 86 95 100 100 100 100 100 100 100 100 94 96
33 46 55 83 82 58 36 35 32 33 38 42 46 57 92 98 98 95 88 85 88 88 81 74 71 98 100 100 100 100 100 96 90 77 75 85 87 94 99 100 100 100 97 97
31 46 66 73 100 90 62 47 39 37 38 47 55 53 56 60 62 78 84 92 99 99 98 97 99 100 100 100 100 99 100 96 91 90 77 78 65 62 70 75 74 87 100 100
34 39 66 70 97 100 93 71 53 43 43 45 58 68 77 85 88 90 85 91 92 100 100 100 100 100 100 100 100 98 100 100 100 92 83 83 76 63 66 52 46 50 59 59
39 44 58 78 92 100 100 98 77 58 47 49 51 62 86 93 98 89 93 90 97 100 100 100 100 100 100 100 100 90 100 100 98 93 92 88 98 92 75 66 68 65 60 57
40 48 55 77 100 100 100 100 99 77 62 53 55 56 66 88 94 98 94 95 98 100 100 100 100 100 100 100 90 98 96 90 84 87 88 84 88 89 77 86 89 98 77 89
44 55 62 70 100 100 100 100 100 99 79 70 58 61 60 61 85 100 97 94 98 92 99 100 100 100 100 100 100 90 75 83 94 96 87 85 98 94 93 93 84 78 96 93
53 62 66 81 100 100 100 100 100 100 100 88 79 66 66 69 69 93 97 95 99 100 99 99 100 100 100 99 87 90 95 92 94 100 94 84 96 88 84 99 95 87 100 100
75 93 87 100 100 100 100 85 100 100 100 100 100 94 78 73 72 75 94 95 99 100 100 100 92 98 100 100 100 100 100 98 100 99 100 100 100 98 98 100 99 92 93 100
81 100 100 100 100 100 89 100 100 100 100 100 100 100 97 88 78 79 87 91 98 100 98 100 96 93 96 96 99 100 100 100 100 100 100 100 100 98 94 96 93 93 98 93
47 100 100 100 100 100 100 100 100 100 99 100 100 100 100 100 97 91 90 94 96 94 97 98 100 100 100 100 100 100 98 100 100 100 100 100 99 100 100 100 100 97 94 100
25 58 95 100 100 100 100 100 100 100 100 100 100 100 100 100 100 100 100 99 100 98 97 100 100 100 99 99 99 98 99 99 100 100 100 99 97 95 97 100 99 100 100 98
34 74 94 100 100 100 100 100 100 100 100 100 100 100 100 100 100 100 100 100 100 100 100 100 100 100 100 100 100 100 100 99 98 98 98 99 100 98 99 100 100 100 100 100
50 88 100 100 100 100 100 100 100 100 100 100 100 100 100 100 100 100 100 100 100 100 100 100 100 100 100 100 100 100 100 100 99 99 98 98 97 96 96 98 99 100 100 100
67 100 100 100 100 100 100 100 100 100 100 100 100 100 100 100 100 100 100 100 100 100 100 100 100 100 100 100 100 100 100 100 100 100 100 100 100 100 98 95 94 95 97 100
Wind_Speed
70 73 77 80 81 82 83 83 78 75 69 63 60 57 57 59 59 62 66 68 70 70 69 66 64 65 65 64 64 62 61 62 63 60 56 55 56 54 54 54 54 51 49 48
73 77 81 82 82 79 74 66 61 58 53 49 47 46 43 46 50 52 53 59 62 65 67 67 66 64 62 61 60 58 53 50 61 60 58 59 60 58 58 57 55 57 54 54
77 80 77 73 69 65 62 58 53 47 45 40 36 33 34 39 47 55 57 57 57 59 59 62 65 68 66 64 60 56 60 54 53 54 50 56 59 55 54 56 58 57 56 54
75 71 68 65 61 57 56 52 48 42 39 35 34 33 29 28 34 42 50 56 59 60 59 62 62 62 63 66 68 65 59 63 62 51 46 42 44 47 47 50 51 52 53 51
66 64 63 60 55 51 49 48 44 39 36 33 29 29 26 25 26 28 32 38 43 48 52 55 60 64 60 60 59 61 69 73 66 58 56 50 41 44 47 48 52 54 53 51
62 62 60 55 53 51 48 44 38 35 27 25 25 25 25 23 23 20 21 24 27 29 32 37 43 51 57 63 65 62 63 66 67 71 71 69 63 54 43 42 41 48 51 53
61 61 58 53 51 49 45 38 30 27 23 25 26 26 26 20 18 18 18 19 21 24 22 23 27 34 37 40 49 58 64 67 58 61 56 69 77 78 74 62 54 48 44 53
58 57 56 51 49 45 41 34 29 27 25 25 24 22 18 13 16 22 18 18 21 20 22 18 22 19 22 24 27 37 45 53 66 68 63 63 63 62 64 75 64 56 62 52
54 53 54 50 46 45 40 33 30 29 27 24 23 14 13 13 13 13 14 14 15 15 15 17 21 18 14 11 18 24 29 35 45 58 71 69 64 62 59 63 76 72 65 57
50 50 51 49 46 44 40 34 30 27 27 24 19 9 14 16 15 15 18 19 16 15 17 19 20 17 12 13 12 14 10 11 22 32 33 52 61 60 59 54 52 60 73 76
49 49 49 49 47 44 42 36 30 27 27 23 16 15 16 16 19 19 19 17 18 20 20 20 22 20 19 18 19 15 9 11 16 21 34 36 38 51 55 55 60 56 49 41
49 49 48 48 46 44 42 39 32 27 26 21 17 16 20 21 18 19 23 20 19 19 22 24 24 22 20 20 20 18 16 15 20 18 27 33 41 38 45 53 54 56 57 56
49 48 48 46 44 43 42 40 36 29 25 22 16 16 17 19 21 26 27 26 28 29 29 26 23 18 16 20 23 22 19 16 18 20 22 25 25 30 43 45 48 49 57 66
47 47 47 45 41 40 39 39 37 32 26 21 19 17 22 25 28 30 32 31 28 26 26 24 21 22 17 12 14 12 15 19 17 16 20 25 27 33 36 33 39 45 50 56
47 46 44 46 40 37 36 36 36 33 28 23 20 17 14 15 14 12 13 14 15 16 15 14 15 15 19 16 16 13 15 15 15 16 17 16 18 25 31 34 38 44 44 42
47 45 43 45 43 34 32 32 32 32 29 25 21 20 18 17 16 17 16 16 14 12 11 11 12 13 16 18 18 17 13 15 16 16 17 14 14 14 15 20 25 33 37 42
48 44 42 43 42 36 31 29 28 28 28 26 22 19 18 18 16 16 16 14 14 10 7 10 10 10 15 15 16 15 12 11 12 13 13 14 13 14 13 14 17 18 24 32
47 44 41 40 37 37 33 29 26 25 24 24 22 19 17 17 16 14 12 10 9 7 6 8 9 10 14 16 15 14 16 17 19 20 18 18 15 14 16 17 18 18 18 24
45 43 42 38 34 36 35 30 26 23 22 21 21 19 17 17 15 13 11 10 11 9 9 10 12 13 13 15 17 19 21 20 19 18 19 19 16 15 17 18 19 20 16 16
43 41 40 36 34 34 36 32 28 22 19 18 18 18 15 16 15 12 10 9 11 9 10 9 14 16 16 18 21 18 16 19 17 16 18 21 21 19 18 18 19 16 13 11
39 37 35 35 36 39 33 30 26 22 19 17 17 17 16 14 13 13 12 10 11 11 12 14 13 12 12 12 13 14 16 14 12 12 13 15 17 17 17 16 16 15 14 12
39 38 36 38 35 29 26 24 19 21 20 18 17 16 15 14 13 12 11 12 12 11 14 16 16 15 15 15 14 13 13 10 10 9 8 9 12 15 17 15 15 15 14 15
40 36 33 30 28 23 19 15 20 19 18 18 17 16 16 14 13 13 12 11 11 12 12 12 14 16 15 14 13 12 12 12 10 9 9 9 11 12 12 13 13 14 14 14
35 31 26 21 19 15 15 18 18 18 17 17 16 15 16 15 14 14 13 11 12 10 10 10 11 12 13 14 14 13 13 12 12 11 11 11 10 10 10 10 10 12 13 13
29 23 19 16 14 15 16 17 17 17 16 16 16 15 15 15 15 15 14 13 11 11 11 11 11 11 11 12 12 12 12 13 13 13 12 11 10 10 10 10 9 10 12 13
23 17 14 13 14 16 17 18 18 18 18 18 18 17 17 16 16 15 15 14 13 12 11 11 11 12 12 11 11 11 12 12 12 12 13 13 13 12 12 11 11 10 9 10
23 17 18 17 18 18 19 20 20 21 21 21 21 21 20 18 17 17 16 16 16 15 14 13 12 11 11 11 12 12 12 12 11 11 11 12 12 11 11 12 13 13 13 12
Wind_Direction
312 311 310 309 308 306 303 300 296 294 290 288 283 279 276 270 264 261 260 258 256 254 254 252 250 253 252 251 251 251 251 251 251 252 251 249 247 245 247 246 246 249 252 254
314 314 313 311 310 307 306 303 302 299 294 288 283 277 269 265 264 262 257 257 256 254 251 248 245 244 243 247 247 247 243 245 249 247 246 246 245 245 245 246 246 247 245 249
317 317 317 317 316 314 313 311 308 305 301 294 288 279 268 260 253 251 254 252 254 257 256 253 249 244 240 239 233 233 242 231 237 247 248 247 245 244 246 247 247 248 249 250
321 323 325 324 322 320 317 315 311 308 304 300 296 289 280 268 260 256 255 255 255 254 251 251 254 253 250 245 237 237 237 234 237 230 230 225 234 237 241 239 241 245 245 246
329 332 331 328 325 323 320 317 314 309 306 305 302 298 294 285 277 268 262 259 259 260 259 256 250 246 247 249 250 245 236 233 230 226 218 213 206 214 228 235 239 237 236 236
338 339 336 332 328 326 323 321 318 314 318 310 305 301 297 294 291 291 281 275 269 266 265 263 262 258 253 252 247 240 241 241 240 236 225 224 224 214 216 234 237 240 236 239
341 343 341 335 332 330 328 328 325 322 324 316 310 304 298 293 295 297 289 282 279 280 280 279 274 270 263 260 253 250 244 242 235 235 239 235 234 237 234 233 239 229 244 241
343 345 344 338 336 335 332 331 324 320 319 313 315 310 300 276 259 282 280 268 276 281 289 286 292 285 280 270 254 251 251 243 237 232 231 239 243 238 233 229 234 238 237 240
344 345 346 342 339 339 335 330 323 318 316 312 312 297 299 301 279 277 293 290 289 279 276 298 315 311 295 289 271 259 252 245 240 239 236 242 245 244 246 242 239 234 230 236
346 346 346 346 343 344 341 332 325 318 317 311 308 279 320 304 279 274 289 284 285 286 289 299 308 308 264 255 261 270 283 247 240 228 227 241 239 240 241 239 238 240 242 241
346 343 344 348 348 347 347 340 331 325 320 312 301 262 253 279 273 287 276 270 276 283 287 295 302 304 255 253 260 265 253 214 231 229 217 226 232 240 244 245 241 240 235 240
345 343 342 344 349 349 349 347 340 333 331 325 304 283 265 278 283 281 266 271 276 277 280 291 296 294 268 260 261 265 264 248 245 237 227 231 232 234 233 240 241 242 243 241
339 342 341 340 343 347 350 350 347 339 335 333 310 289 282 274 273 272 287 287 288 287 285 286 283 257 263 253 263 269 271 269 255 252 251 240 230 235 237 235 237 239 244 245
335 336 340 338 336 341 346 350 349 345 337 336 331 308 288 283 281 282 284 285 286 282 277 273 268 245 249 262 270 275 270 268 269 273 257 252 251 253 248 238 236 242 246 244
332 331 331 338 333 333 338 345 349 348 343 333 331 330 326 319 314 313 306 302 299 291 278 266 246 247 243 250 258 264 266 275 275 274 273 268 260 253 249 251 253 246 239 237
327 326 326 330 333 326 330 336 343 346 345 339 329 324 323 323 318 309 306 307 310 300 277 247 230 227 221 251 258 270 268 272 274 275 265 261 270 257 267 264 262 255 251 255
323 323 321 323 330 325 323 325 331 339 345 341 337 327 322 318 313 309 312 311 311 302 275 241 234 242 238 246 255 256 261 269 275 278 269 254 257 270 270 285 289 281 261 246
319 318 318 317 319 325 322 318 319 329 338 341 337 333 325 320 316 314 303 304 309 310 259 243 242 244 242 244 253 265 272 275 281 275 271 251 252 266 273 270 280 283 297 244
316 315 316 314 312 320 323 317 309 315 325 333 338 334 329 332 330 326 309 292 288 298 267 251 247 244 247 253 261 272 281 282 281 272 260 245 254 267 270 269 268 283 296 266
315 315 315 312 305 317 318 318 304 298 308 320 330 337 331 329 331 329 317 302 298 298 290 272 251 253 259 263 270 275 281 289 279 271 258 253 259 266 268 275 278 269 277 272
314 314 310 307 307 314 315 313 299 292 295 307 317 325 332 331 330 328 321 309 292 282 273 272 274 275 273 276 280 281 290 298 281 278 270 256 254 256 268 278 266 260 261 268
312 309 308 308 309 309 312 310 300 302 297 296 302 311 319 325 326 327 326 317 308 287 272 272 275 277 279 279 281 278 280 288 276 270 263 256 254 261 272 266 259 257 260 253
315 310 308 309 310 311 312 307 300 300 295 294 292 297 305 312 319 319 320 317 312 308 297 287 276 271 272 274 273 274 273 274 278 277 274 271 268 265 263 257 251 247 255 253
320 315 314 315 311 307 302 304 305 302 299 294 291 290 293 299 304 308 310 312 314 310 308 304 293 285 277 272 270 271 272 275 277 277 275 272 270 270 269 267 261 252 247 249
328 323 319 313 304 303 308 309 309 307 304 300 296 292 293 291 294 297 299 302 304 309 306 298 295 292 287 280 276 274 273 272 272 272 273 273 268 263 265 269 268 261 253 246
338 331 318 312 311 311 309 305 303 301 301 299 296 294 291 288 286 285 289 288 292 295 295 295 293 290 286 282 279 276 275 275 275 275 274 273 272 269 265 263 263 262 259 256
332 318 311 309 307 305 304 304 303 302 299 296 293 291 287 283 279 277 277 281 284 284 285 287 288 286 287 284 280 278 277 278 278 278 278 278 276 274 270 265 261 259 257 256